FW9607 Weather Reports


Display with metric or nautical units.
time (UTC)temp
F
wind
direction
speed
MPH
gust
MPH
rain 1hr
in
rain 24hr
in
rain mn
in
humidity
%
barometer
mb
20260504214729 81 134 4.0 11.0 0.00 0.00 0.00 74 1009.5
20260504214229 81 182 4.0 11.0 0.00 0.00 0.00 74 1009.5
20260504213729 81 88 3.0 11.0 0.00 0.00 0.00 74 1009.5
20260504213228 81 125 3.0 8.0 0.00 0.00 0.00 73 1009.5
20260504212725 81 139 4.0 9.0 0.00 0.00 0.00 74 1009.7
20260504212225 81 120 4.0 9.0 0.00 0.00 0.00 74 1009.7
20260504211726 81 151 4.0 9.0 0.00 0.00 0.00 73 1009.6
20260504210226 81 95 4.0 8.0 0.00 0.00 0.00 73 1009.9
20260504205726 82 114 3.0 8.0 0.00 0.00 0.00 72 1009.9
20260504205227 81 96 3.0 6.0 0.00 0.00 0.00 72 1010.0
20260504204726 81 118 3.0 6.0 0.00 0.00 0.00 73 1010.1
20260504204226 81 123 3.0 8.0 0.00 0.00 0.00 73 1010.2
20260504203726 81 122 3.0 8.0 0.00 0.00 0.00 73 1010.2
20260504203226 81 106 3.0 9.0 0.00 0.00 0.00 73 1010.3
20260504202727 81 120 3.0 9.0 0.00 0.00 0.00 73 1010.4
20260504202227 82 154 2.0 7.0 0.00 0.00 0.00 72 1010.6
20260504201724 81 318 2.0 7.0 0.00 0.00 0.00 72 1010.7
20260504201221 81 123 3.0 7.0 0.00 0.00 0.00 72 1010.7
20260504200718 81 180 3.0 9.0 0.00 0.00 0.00 73 1010.8
20260504200219 81 128 3.0 9.0 0.00 0.00 0.00 74 1010.7
20260504195719 81 129 4.0 9.0 0.00 0.00 0.00 73 1010.7
20260504195220 82 156 4.0 9.0 0.00 0.00 0.00 72 1010.8
20260504194720 82 128 4.0 10.0 0.00 0.00 0.00 70 1010.7
20260504193720 82 167 3.0 8.0 0.00 0.00 0.00 68 1010.9
20260504193219 82 212 3.0 8.0 0.00 0.00 0.00 68 1011.0
20260504192220 82 129 3.0 7.0 0.00 0.00 0.00 68 1011.2
20260504191220 81 195 3.0 9.0 0.00 0.00 0.00 69 1011.3
20260504190719 81 133 3.0 9.0 0.00 0.00 0.00 69 1011.4
20260504190221 82 154 2.0 8.0 0.00 0.00 0.00 68 1011.4
20260504185718 81 130 2.0 6.0 0.00 0.00 0.00 69 1011.3
20260504185219 81 122 2.0 6.0 0.00 0.00 0.00 70 1011.4
20260504184719 81 165 2.0 6.0 0.00 0.00 0.00 70 1011.4
20260504183716 81 157 3.0 6.0 0.00 0.00 0.00 70 1011.5
20260504183215 81 182 2.0 7.0 0.00 0.00 0.00 70 1011.6
20260504182716 81 113 2.0 7.0 0.00 0.00 0.00 71 1011.5
20260504182216 80 141 2.0 6.0 0.00 0.00 0.00 70 1011.7
20260504181716 80 210 2.0 8.0 0.00 0.00 0.00 71 1011.7
20260504181215 80 185 2.0 8.0 0.00 0.00 0.00 71 1011.8
20260504180717 80 156 2.0 6.0 0.00 0.00 0.00 72 1011.9
20260504180217 80 201 2.0 6.0 0.00 0.00 0.00 72 1011.9
20260504175716 80 181 2.0 6.0 0.00 0.00 0.00 71 1012.0
20260504174714 80 179 2.0 4.0 0.00 0.00 0.00 72 1012.0
20260504174213 79 186 2.0 5.0 0.00 0.00 0.00 72 1012.0
20260504173711 80 95 2.0 5.0 0.00 0.00 0.00 72 1012.1
20260504173211 80 128 2.0 5.0 0.00 0.00 0.00 73 1012.3
20260504172710 79 139 2.0 5.0 0.00 0.00 0.00 73 1012.3
20260504172211 79 135 2.0 10.0 0.00 0.00 0.00 73 1012.4
20260504171708 79 160 3.0 10.0 0.00 0.00 0.00 72 1012.5
20260504171208 79 180 2.0 6.0 0.00 0.00 0.00 72 1012.4
20260504170709 80 136 2.0 6.0 0.00 0.00 0.00 71 1012.5
20260504170209 80 121 2.0 6.0 0.00 0.00 0.00 71 1012.6
20260504160159 79 143 4.0 12.0 0.00 0.00 0.00 72 1013.0
20260504150656 77 135 4.0 10.0 0.00 0.00 0.00 75 1013.1
20260504150152 76 185 5.0 13.0 0.00 0.00 0.00 76 1013.1
20260504141150 74 171 3.0 11.0 0.00 0.00 0.00 80 1013.2
20260504140654 74 139 3.0 11.0 0.00 0.00 0.00 81 1013.1
20260504140149 74 171 3.0 7.0 0.00 0.00 0.00 81 1012.9
20260504130145 69 149 2.0 4.0 0.00 0.00 0.00 88 1013.3
20260504120126 64 127 1.0 2.0 0.00 0.00 0.00 93 1013.0
20260504100542 62 0 0.0 0.0 0.00 0.00 0.00 93 1013.6
20260504081010 62 0 0.0 2.0 0.00 0.00 0.00 91 1014.3
20260504050003 67 120 1.0 3.0 0.00 0.00 0.00 80 1016.3
20260504045501 67 117 1.0 3.0 0.00 0.00 0.00 79 1016.4
20260504045002 67 106 1.0 3.0 0.00 0.00 0.00 79 1016.6
20260504044501 67 0 0.0 3.0 0.00 0.00 0.00 79 1016.6
20260504044000 67 99 1.0 3.0 0.00 0.00 0.00 78 1016.7
20260504043458 67 117 1.0 5.0 0.00 0.00 0.00 78 1016.8
20260504042959 67 64 1.0 5.0 0.00 0.00 0.00 78 1016.8
20260504042458 67 79 1.0 4.0 0.00 0.00 0.00 78 1016.9
20260504041959 67 129 1.0 4.0 0.00 0.00 0.00 77 1016.9
20260504041458 67 97 1.0 4.0 0.00 0.00 0.00 77 1016.9
20260504041000 67 77 1.0 4.0 0.00 0.00 0.00 77 1016.9
20260504040459 67 95 1.0 4.0 0.00 0.00 0.00 77 1016.9
20260504035959 68 0 0.0 3.0 0.00 0.00 0.00 77 1017.0
20260504035458 68 76 0.0 3.0 0.00 0.00 0.00 76 1017.0
20260504035000 68 0 0.0 3.0 0.00 0.00 0.00 76 1016.9
20260504034459 68 150 0.0 2.0 0.00 0.00 0.00 76 1016.9
20260504034000 69 0 0.0 2.0 0.00 0.00 0.00 75 1016.9
20260504033458 69 0 1.0 4.0 0.00 0.00 0.00 74 1016.9
20260504031958 69 120 1.0 4.0 0.00 0.00 0.00 73 1016.9
20260504031456 69 58 1.0 5.0 0.00 0.00 0.00 73 1017.0
20260504030456 70 0 1.0 3.0 0.00 0.00 0.00 72 1017.0
20260504025958 70 140 1.0 3.0 0.00 0.00 0.00 72 1017.0
20260504025457 70 94 1.0 4.0 0.00 0.00 0.00 71 1016.9
20260504024958 70 115 2.0 7.0 0.00 0.00 0.00 71 1016.8
20260504024454 70 113 2.0 7.0 0.00 0.00 0.00 71 1016.8
20260504023955 71 81 2.0 6.0 0.00 0.00 0.00 70 1016.7
20260504023454 71 90 2.0 5.0 0.00 0.00 0.00 70 1016.7
20260504022454 71 67 2.0 5.0 0.00 0.00 0.00 70 1016.6
20260504021955 71 124 2.0 4.0 0.00 0.00 0.00 70 1016.5
20260504021454 71 96 2.0 6.0 0.00 0.00 0.00 70 1016.4
20260504020956 71 117 2.0 6.0 0.00 0.00 0.00 69 1016.5
20260504020454 71 128 2.0 5.0 0.00 0.00 0.00 69 1016.5
20260504015956 71 0 2.0 5.0 0.00 0.00 0.00 69 1016.4
20260504015454 71 154 2.0 5.0 0.00 0.00 0.00 69 1016.5
20260504014956 72 88 2.0 6.0 0.00 0.00 0.00 68 1016.3
20260504014454 72 150 2.0 6.0 0.00 0.00 0.00 68 1016.3
20260504013956 72 113 2.0 5.0 0.00 0.00 0.00 68 1016.3
20260504013455 72 100 2.0 5.0 0.00 0.00 0.00 67 1016.3
20260504012954 72 129 2.0 5.0 0.00 0.00 0.00 67 1016.3
20260504012452 73 111 3.0 5.0 0.00 0.00 0.00 66 1016.2
20260504011954 73 104 2.0 5.0 0.00 0.00 0.00 66 1016.2
20260504010954 73 0 2.0 7.0 0.00 0.00 0.00 66 1016.0
20260504010449 73 106 3.0 7.0 0.00 0.00 0.00 65 1015.9
20260504005951 73 128 3.0 7.0 0.00 0.00 0.00 65 1015.8
20260504005449 74 142 4.0 8.0 0.00 0.00 0.00 64 1015.9
20260504004951 74 148 3.0 8.0 0.00 0.00 0.00 63 1015.8
20260504004449 74 132 2.0 6.0 0.00 0.00 0.00 64 1015.9
20260504003952 74 132 3.0 9.0 0.00 0.00 0.00 63 1016.0
20260504003450 74 150 3.0 9.0 0.00 0.00 0.00 63 1015.9
20260504002952 74 118 3.0 9.0 0.00 0.00 0.00 63 1016.0
20260504002450 75 134 3.0 8.0 0.00 0.00 0.00 62 1016.1
20260504001951 75 95 3.0 8.0 0.00 0.00 0.00 62 1016.2
20260504001451 75 124 3.0 10.0 0.00 0.00 0.00 61 1016.4
20260504000957 76 123 3.0 10.0 0.00 0.00 0.00 61 1016.4
20260503235957 76 92 3.0 10.0 0.00 0.00 0.00 61 1016.3
20260503235447 76 129 3.0 10.0 0.00 0.00 0.00 60 1016.2
20260503234447 76 213 4.0 9.0 0.00 0.00 0.00 60 1016.0
20260503233957 76 111 4.0 11.0 0.00 0.00 0.00 61 1016.0
20260503233447 76 95 4.0 11.0 0.00 0.00 0.00 61 1016.0
20260503232957 76 97 5.0 11.0 0.00 0.00 0.00 60 1016.0
20260503232448 77 116 5.0 12.0 0.00 0.00 0.00 60 1016.1
20260503232000 77 118 5.0 12.0 0.00 0.00 0.00 60 1016.0
20260503231444 77 134 4.0 10.0 0.00 0.00 0.00 59 1016.1
20260503230949 77 123 4.0 11.0 0.00 0.00 0.00 60 1016.2
20260503230444 77 173 4.0 13.0 0.00 0.00 0.00 59 1016.1
20260503225443 78 127 5.0 11.0 0.00 0.00 0.00 58 1016.2
20260503224949 78 122 5.0 13.0 0.00 0.00 0.00 58 1016.2
20260503223949 78 107 4.0 9.0 0.00 0.00 0.00 57 1016.2
20260503223444 78 162 3.0 7.0 0.00 0.00 0.00 57 1016.3
20260503222946 78 78 3.0 3.0 0.00 0.00 0.00 57 1016.3
20260503222509 78 98 4.0 10.0 0.00 0.00 0.00 56 1016.4
20260503222009 79 123 3.0 10.0 0.00 0.00 0.00 56 1016.4
20260503221509 79 96 3.0 9.0 0.00 0.00 0.00 55 1016.4
20260503221009 78 106 3.0 9.0 0.00 0.00 0.00 55 1016.4
20260503220509 79 112 3.0 9.0 0.00 0.00 0.00 54 1016.6
20260503220007 78 121 3.0 8.0 0.00 0.00 0.00 55 1016.6
20260503215506 78 157 4.0 8.0 0.00 0.00 0.00 56 1016.7